CW7595 Weather Reports


Display with metric or nautical units.
time (UTC)temp
F
wind
direction
speed
MPH
gust
MPH
rain 1hr
in
rain 24hr
in
rain mn
in
humidity
%
barometer
mb
20260505014508 45 196 0.0 0.0 0.00 0.01 0.01 73 1004.3
20260505013007 44 190 0.0 0.0 0.00 0.01 0.01 73 1004.1
20260505011506 44 190 0.0 0.0 0.00 0.01 0.01 72 1003.8
20260505010012 44 187 0.0 3.0 0.00 0.02 0.01 72 1003.8
20260505004503 45 203 0.0 2.0 0.00 0.02 0.01 71 1003.8
20260505003008 45 192 0.0 3.0 0.01 0.02 0.01 70 1003.6
20260505001559 45 220 0.0 4.0 0.01 0.02 0.01 69 1003.2
20260505000056 46 197 0.0 4.0 0.01 0.02 0.01 69 1003.0
20260504234554 46 202 0.0 3.0 0.01 0.02 0.01 68 1002.7
20260504233055 47 177 0.0 4.0 0.00 0.01 0.00 67 1002.4
20260504231557 47 163 0.0 5.0 0.00 0.01 0.00 67 1002.3
20260504230052 48 190 0.0 4.0 0.00 0.03 0.00 66 1002.0
20260504224551 48 180 0.0 3.0 0.00 0.03 0.00 66 1002.0
20260504223059 49 218 0.0 7.0 0.00 0.03 0.00 64 1001.8
20260504221601 49 250 0.0 7.0 0.00 0.03 0.00 64 1001.9
20260504220049 49 256 0.0 12.0 0.00 0.04 0.00 63 1001.8
20260504214558 50 243 1.0 9.0 0.00 0.04 0.00 63 1001.6
20260504213100 50 251 2.0 12.0 0.00 0.04 0.00 62 1001.5
20260504211550 49 304 2.0 10.0 0.00 0.04 0.00 65 1001.4
20260504210047 49 201 0.0 5.0 0.00 0.05 0.00 64 1001.5
20260504204550 49 267 1.0 6.0 0.00 0.05 0.00 63 1001.3
20260504203051 51 259 0.0 8.0 0.00 0.05 0.00 61 1001.2
20260504201543 49 190 0.0 3.0 0.00 0.05 0.00 63 1001.3
20260504200043 48 273 0.0 5.0 0.00 0.07 0.00 63 1001.4
20260504194547 48 261 1.0 7.0 0.00 0.07 0.00 63 1001.5
20260504193043 48 311 1.0 5.0 0.00 0.07 0.00 61 1001.6
20260504191542 48 281 0.0 6.0 0.00 0.07 0.00 60 1001.5
20260504190041 49 252 1.0 9.0 0.00 0.11 0.00 61 1001.6
20260504184540 50 299 3.0 13.0 0.00 0.11 0.00 54 1001.7
20260504183042 50 317 0.0 9.0 0.00 0.11 0.00 55 1001.7
20260504181539 51 188 2.0 7.0 0.00 0.11 0.00 49 1001.5
20260504180046 52 253 2.0 9.0 0.00 0.13 0.00 44 1001.3
20260504174543 53 216 2.0 12.0 0.00 0.13 0.00 39 1001.1
20260504173037 54 178 1.0 12.0 0.00 0.13 0.00 35 1000.9
20260504171537 55 292 2.0 12.0 0.00 0.13 0.00 33 1000.7
20260504081516 33 254 0.0 5.0 0.00 0.41 0.00 80 1001.2
20260504044546 38 329 4.0 12.0 0.00 0.43 0.00 76 1000.6
20260504043045 38 329 2.0 10.0 0.00 0.43 0.00 76 1000.5
20260504041541 38 274 0.0 12.0 0.00 0.43 0.00 77 1000.6
20260504040059 39 294 4.0 11.0 0.00 0.43 0.43 78 1000.5
20260504034536 39 336 4.0 10.0 0.00 0.43 0.43 80 1000.5
20260504033035 40 265 4.0 13.0 0.00 0.43 0.43 83 1000.3
20260504031533 40 321 1.0 6.0 0.00 0.43 0.43 85 1000.3
20260504030030 40 293 0.0 3.0 0.00 0.43 0.43 85 1000.4
20260504024530 40 265 2.0 7.0 0.00 0.43 0.43 85 1000.2
20260504023030 40 315 3.0 8.0 0.00 0.43 0.43 85 1000.2
20260504021528 41 271 1.0 5.0 0.00 0.43 0.43 84 1000.2
20260504020029 41 319 1.0 7.0 0.00 0.43 0.43 84 1000.2